Location: Arcueil
(48.7999°N, 2.3326°E)
Time: 21:09:26
(UTC+00:00)

JY1SAT - Pass Details

Date: 24 June 2024
Orbit: 535 x 549 km, 97.5° (Epoch: 18 July)

Event Time Altitude Azimuth Distance (km) Brightness Sun altitude
Exits shadow 20:53:44 - 175° (S) 2,295 ? -7.4°
Reaches altitude 10° 20:54:53 10° 177° (S) 1,821 ? -7.6°
Maximum altitude 20:58:47 62° 259° (WSW) 628 ? -8.0°
Drops below altitude 10° 21:02:44 10° 341° (NNW) 1,844 ? -8.4°
Sets 21:04:55 0° 344° (NNW) 2,745 ? -8.6°
